When you browse on this site, cookies collect data to enhance your experience and personalize the content and advertising you see.
Visit our Privacy Policy to learn more. By continuing to use the site, you agree to this use of cookies and data.
  • In Hungary
  • List of Countries
  • For 7 days
  • Water Temperature
  • Weather Map
  • News
  • Weather Widgets
  • user-avatar
    Login

    Hourly Weather Podgornye

    Today, 7 December, Saturday

    Time Temperature Precipitation Wind Pressure Humidity
    00:00 -1°C° 0.1 mm 5 mps 738 mmHg 89%
    01:00 -1°C° 0.1 mm 5 mps 738 mmHg 90%
    02:00 -1°C° 0 mm 4 mps 738 mmHg 90%
    03:00 -1°C° 0.2 mm 4 mps 737 mmHg 91%
    04:00 -2°C° 0.2 mm 4 mps 737 mmHg 92%
    05:00 -2°C° 0.2 mm 4 mps 736 mmHg 94%
    06:00 -2°C° 0.8 mm 4 mps 736 mmHg 94%
    07:00 -2°C° 0.8 mm 5 mps 736 mmHg 94%
    08:00 -2°C° 0 mm 4 mps 736 mmHg 94%
    09:00 -2°C° 0.5 mm 5 mps 736 mmHg 92%
    10:00 -2°C° 0.5 mm 5 mps 735 mmHg 90%
    11:00 -2°C° 0.5 mm 5 mps 735 mmHg 89%
    12:00 -2°C° 0.1 mm 5 mps 734 mmHg 86%
    13:00 -2°C° 0.1 mm 5 mps 734 mmHg 83%
    14:00 -3°C° 0 mm 6 mps 733 mmHg 80%
    15:00 -3°C° 0.1 mm 6 mps 733 mmHg 83%
    16:00 -3°C° 0.1 mm 6 mps 732 mmHg 86%
    17:00 -3°C° 0.1 mm 6 mps 732 mmHg 88%
    18:00 -2°C° 0.1 mm 6 mps 732 mmHg 89%
    19:00 -2°C° 0.1 mm 6 mps 732 mmHg 90%
    20:00 -1°C° 0.1 mm 6 mps 731 mmHg 91%
    21:00 0°C° 0.2 mm 7 mps 731 mmHg 91%
    22:00 0°C° 0.2 mm 7 mps 730 mmHg 90%
    23:00 +2°C° 0.2 mm 7 mps 730 mmHg 90%

    Tomorrow, 8 December, Sunday

    Time Temperature Precipitation Wind Pressure Humidity
    00:00 +2°C° 0.1 mm 7 mps 731 mmHg 88%
    01:00 +2°C° 0.1 mm 7 mps 731 mmHg 85%
    02:00 0°C° 0.1 mm 7 mps 732 mmHg 83%
    03:00 0°C° 0 mm 7 mps 732 mmHg 84%
    04:00 0°C° 0 mm 7 mps 732 mmHg 85%
    05:00 -1°C° 0 mm 7 mps 732 mmHg 87%
    06:00 -1°C° 0 mm 7 mps 733 mmHg 86%
    07:00 -1°C° 0 mm 6 mps 734 mmHg 86%
    08:00 -1°C° 0 mm 6 mps 735 mmHg 85%
    09:00 0°C° 0 mm 5 mps 735 mmHg 84%
    10:00 0°C° 0 mm 5 mps 736 mmHg 84%
    11:00 0°C° 0 mm 5 mps 736 mmHg 83%
    12:00 0°C° 0 mm 5 mps 736 mmHg 82%
    13:00 0°C° 0 mm 5 mps 736 mmHg 82%
    14:00 0°C° 0 mm 5 mps 736 mmHg 82%
    15:00 0°C° 0 mm 5 mps 736 mmHg 84%
    16:00 0°C° 0 mm 5 mps 735 mmHg 87%
    17:00 0°C° 0 mm 5 mps 735 mmHg 90%
    18:00 +1°C° 0.2 mm 5 mps 735 mmHg 91%
    19:00 +2°C° 0.2 mm 6 mps 734 mmHg 92%
    20:00 +2°C° 0.2 mm 6 mps 734 mmHg 92%
    21:00 +2°C° 0.2 mm 7 mps 733 mmHg 91%
    22:00 +2°C° 0.2 mm 7 mps 733 mmHg 89%
    23:00 +3°C° 0.2 mm 7 mps 732 mmHg 88%

    Day after tomorrow, 9 December, Monday

    Time Temperature Precipitation Wind Pressure Humidity
    00:00 +3°C° 0.1 mm 7 mps 732 mmHg 88%
    01:00 +2°C° 0.1 mm 7 mps 732 mmHg 88%
    02:00 +2°C° 0.1 mm 7 mps 732 mmHg 88%
    03:00 +3°C° 0.1 mm 7 mps 732 mmHg 88%
    04:00 +3°C° 0.1 mm 6 mps 731 mmHg 89%
    05:00 +3°C° 0.1 mm 6 mps 731 mmHg 89%
    06:00 +3°C° 0.1 mm 6 mps 731 mmHg 89%
    07:00 +4°C° 0.1 mm 6 mps 731 mmHg 89%
    08:00 +5°C° 0.1 mm 5 mps 732 mmHg 89%
    09:00 +5°C° 0.1 mm 5 mps 732 mmHg 88%
    10:00 +5°C° 0.1 mm 5 mps 732 mmHg 87%
    11:00 +5°C° 0.1 mm 5 mps 732 mmHg 87%
    12:00 +5°C° 0.4 mm 5 mps 732 mmHg 86%
    13:00 +5°C° 0.4 mm 5 mps 733 mmHg 84%
    14:00 +5°C° 0.4 mm 5 mps 733 mmHg 83%
    15:00 +5°C° 0 mm 5 mps 733 mmHg 85%
    16:00 +4°C° 0 mm 4 mps 733 mmHg 87%
    17:00 +3°C° 0 mm 4 mps 733 mmHg 90%
    18:00 +3°C° 0.4 mm 4 mps 734 mmHg 90%
    19:00 +3°C° 0.4 mm 4 mps 734 mmHg 91%
    20:00 +4°C° 0.4 mm 4 mps 735 mmHg 91%
    21:00 +3°C° 0.1 mm 4 mps 735 mmHg 91%
    22:00 +3°C° 0.1 mm 4 mps 735 mmHg 92%
    23:00 +1°C° 0.1 mm 4 mps 736 mmHg 92%

    10 December, Tuesday

    Time Temperature Precipitation Wind Pressure Humidity
    00:00 +1°C° 0 mm 4 mps 736 mmHg 92%
    01:00 +1°C° 0 mm 4 mps 736 mmHg 92%
    02:00 +1°C° 0 mm 3 mps 737 mmHg 93%
    03:00 0°C° 0 mm 4 mps 737 mmHg 93%
    04:00 +1°C° 0 mm 4 mps 737 mmHg 93%
    05:00 +1°C° 0 mm 4 mps 737 mmHg 92%
    06:00 +1°C° 0.1 mm 4 mps 737 mmHg 93%
    07:00 +1°C° 0.1 mm 4 mps 737 mmHg 94%
    08:00 +1°C° 0.1 mm 4 mps 737 mmHg 94%
    09:00 +3°C° 0.1 mm 4 mps 737 mmHg 93%
    10:00 +3°C° 0.1 mm 4 mps 738 mmHg 91%
    11:00 +2°C° 0.1 mm 5 mps 738 mmHg 89%
    12:00 +2°C° 0.1 mm 5 mps 738 mmHg 89%
    13:00 +2°C° 0.1 mm 5 mps 739 mmHg 89%
    14:00 +2°C° 0.1 mm 5 mps 739 mmHg 89%
    15:00 +2°C° 0.3 mm 5 mps 740 mmHg 91%
    16:00 +1°C° 0.3 mm 5 mps 740 mmHg 92%
    17:00 +1°C° 0.3 mm 6 mps 741 mmHg 94%
    18:00 0°C° 0.1 mm 5 mps 742 mmHg 89%
    19:00 -1°C° 0.1 mm 5 mps 743 mmHg 83%
    20:00 -1°C° 0.1 mm 4 mps 744 mmHg 78%
    21:00 -2°C° 0 mm 4 mps 745 mmHg 80%
    22:00 -2°C° 0 mm 4 mps 746 mmHg 82%
    23:00 -3°C° 0 mm 4 mps 746 mmHg 84%

    11 December, Wednesday

    Time Temperature Precipitation Wind Pressure Humidity
    00:00 -3°C° 0 mm 4 mps 747 mmHg 84%
    01:00 -3°C° 0 mm 4 mps 748 mmHg 84%
    02:00 -2°C° 0 mm 3 mps 748 mmHg 85%
    03:00 -2°C° 0 mm 3 mps 749 mmHg 85%
    04:00 -2°C° 0 mm 3 mps 749 mmHg 84%
    05:00 -2°C° 0 mm 3 mps 749 mmHg 84%
    06:00 -2°C° 0 mm 3 mps 749 mmHg 84%
    07:00 -3°C° 0 mm 2 mps 750 mmHg 85%
    08:00 -3°C° 0 mm 2 mps 750 mmHg 85%
    09:00 -2°C° 0 mm 2 mps 750 mmHg 81%
    10:00 -2°C° 0 mm 3 mps 750 mmHg 77%
    11:00 -1°C° 0 mm 3 mps 750 mmHg 73%
    12:00 -1°C° 0 mm 3 mps 750 mmHg 70%
    13:00 -1°C° 0 mm 3 mps 750 mmHg 68%
    14:00 -1°C° 0 mm 3 mps 750 mmHg 65%
    15:00 -1°C° 0 mm 3 mps 749 mmHg 67%
    16:00 -2°C° 0 mm 4 mps 749 mmHg 68%
    17:00 -3°C° 0 mm 4 mps 749 mmHg 69%
    18:00 -3°C° 0 mm 4 mps 749 mmHg 69%
    19:00 -3°C° 0 mm 4 mps 749 mmHg 68%
    20:00 -3°C° 0 mm 4 mps 749 mmHg 67%
    21:00 -3°C° 0 mm 4 mps 749 mmHg 67%
    22:00 -3°C° 0 mm 4 mps 748 mmHg 66%
    23:00 -3°C° 0 mm 4 mps 748 mmHg 66%

    12 December, Thursday

    Time Temperature Precipitation Wind Pressure Humidity
    00:00 -3°C° 0 mm 4 mps 748 mmHg 67%
    01:00 -3°C° 0 mm 4 mps 748 mmHg 68%
    02:00 -3°C° 0 mm 4 mps 747 mmHg 69%
    03:00 -3°C° 0 mm 4 mps 747 mmHg 73%
    04:00 -4°C° 0 mm 4 mps 747 mmHg 76%
    05:00 -4°C° 0 mm 4 mps 747 mmHg 80%
    06:00 -4°C° 0 mm 4 mps 747 mmHg 82%
    07:00 -4°C° 0 mm 4 mps 747 mmHg 83%
    08:00 -4°C° 0 mm 4 mps 747 mmHg 85%
    09:00 -3°C° 0 mm 4 mps 747 mmHg 84%
    10:00 -3°C° 0 mm 4 mps 747 mmHg 83%
    11:00 -2°C° 0 mm 4 mps 747 mmHg 82%
    12:00 -2°C° 0 mm 4 mps 746 mmHg 81%
    13:00 -2°C° 0 mm 4 mps 746 mmHg 80%
    14:00 -2°C° 0 mm 4 mps 746 mmHg 80%
    15:00 -2°C° 0 mm 4 mps 746 mmHg 82%
    16:00 -3°C° 0 mm 4 mps 745 mmHg 84%
    17:00 -3°C° 0 mm 4 mps 745 mmHg 86%
    18:00 -3°C° 0 mm 4 mps 745 mmHg 86%
    19:00 -3°C° 0 mm 4 mps 745 mmHg 86%
    20:00 -4°C° 0 mm 4 mps 745 mmHg 86%
    21:00 -4°C° 0 mm 4 mps 745 mmHg 86%
    22:00 -4°C° 0 mm 4 mps 744 mmHg 85%
    23:00 -4°C° 0 mm 4 mps 744 mmHg 85%
    Show more